Location: Casilda
(33.0440°S, 61.1680°W)
Time: 20:41:27
(UTC-03:00)

ISS - Pass Details

Date: 29 November 2022
Orbit: 414 x 420 km, 51.6° (Epoch: 02 December)

Event Time Altitude Azimuth Distance (km) Brightness Sun altitude
Exits shadow 03:40:13 18° 215° (SW) 1,109 -1.5 -22.4°
Maximum altitude 03:40:17 18° 213° (SSW) 1,109 -1.5 -22.4°
Drops below altitude 10° 03:42:47 10° 167° (SSE) 1,529 -0.1 -22.1°
Sets 03:45:22 0° 147° (SSE) 2,401 1.5 -21.7°
